Location: Stanford
(52.2833°N, 2.4333°W)
Time: 02:22:35
(UTC+00:00)

Cosmos 1812 Rocket - Pass Details

Date: 22 January 2021
Orbit: 604 x 633 km, 82.5° (Epoch: 28 February)

Event Time Altitude Azimuth Distance (km) Brightness Sun altitude
Rises 19:16:00 0° 346° (NNW) 2,916 7.2 -23.6°
Reaches altitude 10° 19:18:17 10° 342° (NNW) 2,000 6.3 -23.9°
Maximum altitude 19:22:36 54° 265° (W) 751 4.2 -24.6°
Drops below altitude 10° 19:26:51 10° 188° (S) 1,966 6.2 -25.2°
Sets 19:29:05 0° 184° (S) 2,862 7.0 -25.6°
